Terug naar catalogus

THORAD AGENA D DEB

ActiefLEO
NORAD 5758·DEBRIS·🇺🇸 United States

Gelanceerd Sep 30, 1969 vanaf Vandenberg Space Force Base

Loading…

Volgende Passages (komende 24 uur)

TLE

VersSource: Space-Track

Epoch: Sep 14, 2026, 22:12 UTC

1 05758U 69082JS  26257.92520074 -.00000001  00000-0  48456-4 0  9994
2 05758  69.8075 311.4465 0047355 235.9427 306.8969 13.80994292875864

Volg THORAD AGENA D DEB in realtime met AllMySat

Download on the App Store